Retour au catalogue

STARLINK-30957

ActifCommunicationsVLEO
NORAD 58453·PAYLOAD·🇺🇸 United States

Lancé Nov 28, 2023 depuis Cape Canaveral Space Force Station

Loading…

Prochains Passages (prochaines 24 heures)

TLE

FraisSource: CelesTrak SupGP

Époque: Sep 14, 2026, 14:42 UTC

1 58453C 23183S   26257.61298611 -.00025386  00000+0 -91962-3 0  2570
2 58453  43.0030  54.5309 0001629 266.8353 302.1597 15.27586054    15

Suivez STARLINK-30957 en temps réel avec AllMySat

Download on the App Store